sat.trackr.live / text

‹ back to catalog

STARLINK-33904

NORAD 63887 · 2025-094Z

PAYLOAD ACTIVE UNKNOWN

§ Identity

Operator
Country
US
Launch date
2025-05-10
Launch site
AFWTR
Launch vehicle
Mass (kg)
RCS (m²)

Purposes: comms

External: N2YO · Heavens-Above · Gunter

§ Orbital elements

Epoch: 2026-09-20T14:12:48.087936Z

Period
94.09 min
Inclination
69.9987°
Eccentricity
0.0003520
Mean motion
15.30424159 rev/d
Perigee alt
472.1 km
Apogee alt
477.0 km
Semi-major
6,852.7 km
B*
3.2102e-4
RAAN
100.8070°
Arg perigee
265.7068°
Mean anomaly
94.3706°
Rev number
7,645

§ Raw data

STARLINK-339041 63887U 25094Z   26263.59222324  .00009354  00000+0  32102-3 0  99912 63887  69.9987 100.8070 0003520 265.7068  94.3706 15.30424159 76457

JSON: /api/v1/satellites/63887 · /tle

For live sub-satellite position, see the globe view (requires WebGL).

§ Visibility from observer

Set your observer location to see the next 7 days of passes ≥ 10°. The values pass through the URL so the page stays shareable.

No JS? Fill the form by hand. The geolocation button needs JavaScript.